Time,TemperatureF,DewpointF,PressureIn,WindDirection,WindDirectionDegrees,WindSpeedMPH,WindSpeedGustMPH,Humidity,HourlyPrecipIn,Conditions,Clouds,dailyrainin,SoftwareType,DateUTC
2013-09-23 00:01:00,49.8,48.3,29.76,WSW,247,6.5,6.5,95,0.00,,,0.00,WUHU21623XXSP,2013-09-23 07:01:00,
2013-09-23 00:06:00,49.8,48.3,29.76,SW,225,8.3,8.3,95,0.00,,,0.00,WUHU21623XXSP,2013-09-23 07:06:00,
2013-09-23 00:11:00,49.8,48.3,29.76,WSW,247,13.4,13.4,95,0.00,,,0.00,WUHU21623XXSP,2013-09-23 07:11:00,
2013-09-23 00:16:00,49.6,48.1,29.76,WSW,247,7.6,16.1,95,0.00,,,0.00,WUHU21623XXSP,2013-09-23 07:16:00,
2013-09-23 00:21:00,49.6,48.1,29.76,WSW,247,6.0,16.1,95,0.00,,,0.00,WUHU21623XXSP,2013-09-23 07:21:00,
2013-09-23 00:26:00,49.6,48.1,29.76,WSW,247,6.0,7.6,95,0.00,,,0.00,WUHU21623XXSP,2013-09-23 07:26:00,
2013-09-23 00:31:00,49.6,48.1,29.76,West,270,8.1,8.1,95,0.00,,,0.00,WUHU21623XXSP,2013-09-23 07:31:00,
2013-09-23 00:36:00,49.6,48.1,29.76,West,270,8.7,8.7,95,0.00,,,0.00,WUHU21623XXSP,2013-09-23 07:36:00,
2013-09-23 00:41:00,49.6,48.1,29.76,WSW,247,9.8,9.8,95,0.00,,,0.00,WUHU21623XXSP,2013-09-23 07:41:00,
2013-09-23 00:46:00,49.5,48.0,29.76,West,270,8.5,9.8,95,0.00,,,0.00,WUHU21623XXSP,2013-09-23 07:46:00,
2013-09-23 00:51:00,49.3,47.8,29.77,West,270,7.4,8.5,95,0.00,,,0.00,WUHU21623XXSP,2013-09-23 07:51:00,
2013-09-23 00:56:00,49.3,47.8,29.77,WSW,247,3.4,7.4,95,0.00,,,0.00,WUHU21623XXSP,2013-09-23 07:56:00,
2013-09-23 01:01:00,49.3,47.8,29.77,West,270,9.2,9.2,95,0.00,,,0.00,WUHU21623XXSP,2013-09-23 08:01:00,
2013-09-23 01:06:00,49.3,47.8,29.77,West,270,9.2,9.2,95,0.00,,,0.00,WUHU21623XXSP,2013-09-23 08:06:00,
2013-09-23 01:11:00,49.1,47.6,29.78,West,270,2.7,10.7,95,0.00,,,0.00,WUHU21623XXSP,2013-09-23 08:11:00,
2013-09-23 01:16:00,49.1,47.6,29.78,West,270,6.5,10.7,95,0.00,,,0.00,WUHU21623XXSP,2013-09-23 08:16:00,
2013-09-23 01:21:00,49.1,47.6,29.78,WSW,247,11.4,11.4,95,0.00,,,0.00,WUHU21623XXSP,2013-09-23 08:21:00,
2013-09-23 01:26:00,49.1,47.6,29.78,WSW,247,13.2,13.2,95,0.00,,,0.00,WUHU21623XXSP,2013-09-23 08:26:00,
2013-09-23 01:31:00,49.1,47.6,29.78,WSW,247,3.8,13.2,95,0.00,,,0.00,WUHU21623XXSP,2013-09-23 08:31:00,
2013-09-23 01:36:00,49.1,47.6,29.78,WSW,247,11.4,11.4,95,0.00,,,0.00,WUHU21623XXSP,2013-09-23 08:36:00,
2013-09-23 01:41:00,48.9,47.4,29.78,WSW,247,0.0,11.4,95,0.00,,,0.00,WUHU21623XXSP,2013-09-23 08:41:00,
2013-09-23 01:46:00,48.9,47.4,29.78,WSW,247,6.0,7.4,95,0.00,,,0.00,WUHU21623XXSP,2013-09-23 08:46:00,
2013-09-23 01:51:00,48.9,47.4,29.78,WSW,247,0.0,13.4,95,0.00,,,0.00,WUHU21623XXSP,2013-09-23 08:51:00,
2013-09-23 01:56:00,48.7,47.2,29.78,West,270,0.0,13.4,95,0.00,,,0.00,WUHU21623XXSP,2013-09-23 08:56:00,
2013-09-23 02:01:00,48.4,46.9,29.78,West,270,1.1,6.7,95,0.00,,,0.00,WUHU21623XXSP,2013-09-23 09:01:00,
2013-09-23 02:06:00,48.4,46.9,29.78,WSW,247,5.8,5.8,95,0.00,,,0.00,WUHU21623XXSP,2013-09-23 09:06:00,
2013-09-23 02:11:00,48.2,46.7,29.78,West,270,8.5,8.5,95,0.00,,,0.00,WUHU21623XXSP,2013-09-23 09:11:00,
2013-09-23 02:16:00,48.0,46.5,29.78,WSW,247,11.6,12.3,95,0.00,,,0.00,WUHU21623XXSP,2013-09-23 09:16:00,
2013-09-23 02:21:00,47.8,46.3,29.79,WSW,247,6.7,12.3,95,0.00,,,0.00,WUHU21623XXSP,2013-09-23 09:21:00,
2013-09-23 02:26:00,47.5,46.0,29.79,SW,225,12.1,12.1,95,0.00,,,0.00,WUHU21623XXSP,2013-09-23 09:26:00,
2013-09-23 02:31:00,47.3,45.8,29.79,WSW,247,10.7,13.0,95,0.00,,,0.00,WUHU21623XXSP,2013-09-23 09:31:00,
2013-09-23 02:36:00,47.1,45.6,29.80,WSW,247,5.1,13.0,95,0.00,,,0.00,WUHU21623XXSP,2013-09-23 09:36:00,
2013-09-23 02:41:00,46.9,45.4,29.80,SW,225,6.3,8.1,95,0.00,,,0.00,WUHU21623XXSP,2013-09-23 09:41:00,
2013-09-23 02:46:00,46.8,45.6,29.80,WSW,247,8.7,8.7,96,0.00,,,0.00,WUHU21623XXSP,2013-09-23 09:46:00,
2013-09-23 02:51:00,46.6,45.4,29.81,WSW,247,12.5,12.5,96,0.00,,,0.00,WUHU21623XXSP,2013-09-23 09:51:00,
2013-09-23 02:56:00,46.6,45.4,29.80,SW,225,11.0,12.5,96,0.00,,,0.00,WUHU21623XXSP,2013-09-23 09:56:00,
2013-09-23 03:01:00,46.6,45.4,29.81,West,270,8.1,11.0,96,0.00,,,0.00,WUHU21623XXSP,2013-09-23 10:01:00,
2013-09-23 03:06:00,46.6,45.4,29.81,SW,225,9.4,9.6,96,0.00,,,0.00,WUHU21623XXSP,2013-09-23 10:06:00,
2013-09-23 03:11:00,46.6,45.4,29.81,SW,225,6.0,9.4,96,0.00,,,0.00,WUHU21623XXSP,2013-09-23 10:11:00,
2013-09-23 03:16:00,46.6,45.4,29.81,WSW,247,11.9,12.8,96,0.00,,,0.00,WUHU21623XXSP,2013-09-23 10:16:00,
2013-09-23 03:21:00,46.2,45.0,29.81,WSW,247,9.6,12.8,96,0.00,,,0.00,WUHU21623XXSP,2013-09-23 10:21:00,
2013-09-23 03:26:00,46.0,44.8,29.81,SW,225,8.3,9.6,96,0.00,,,0.00,WUHU21623XXSP,2013-09-23 10:26:00,
2013-09-23 03:31:00,45.7,44.5,29.81,SW,225,7.8,8.3,96,0.00,,,0.00,WUHU21623XXSP,2013-09-23 10:31:00,
2013-09-23 03:36:00,45.5,44.3,29.81,SW,225,7.4,8.1,96,0.00,,,0.00,WUHU21623XXSP,2013-09-23 10:36:00,
2013-09-23 03:41:00,45.3,44.1,29.81,WSW,247,14.8,14.8,96,0.00,,,0.00,WUHU21623XXSP,2013-09-23 10:41:00,
2013-09-23 03:46:00,45.1,43.9,29.82,SW,225,8.3,14.8,96,0.00,,,0.00,WUHU21623XXSP,2013-09-23 10:46:00,
2013-09-23 03:51:00,45.0,43.8,29.82,WSW,247,11.4,11.4,96,0.00,,,0.00,WUHU21623XXSP,2013-09-23 10:51:00,
2013-09-23 03:56:00,44.8,43.6,29.82,SW,225,11.6,11.6,96,0.00,,,0.00,WUHU21623XXSP,2013-09-23 10:56:00,
2013-09-23 04:01:00,44.8,43.9,29.83,WSW,247,14.3,14.3,97,0.00,,,0.00,WUHU21623XXSP,2013-09-23 11:01:00,
2013-09-23 04:06:00,44.8,43.9,29.82,SW,225,6.9,14.3,97,0.00,,,0.00,WUHU21623XXSP,2013-09-23 11:06:00,
2013-09-23 04:11:00,44.8,43.9,29.82,SW,225,10.7,10.7,97,0.00,,,0.00,WUHU21623XXSP,2013-09-23 11:11:00,
2013-09-23 04:16:00,44.8,43.9,29.83,SW,225,14.1,14.1,97,0.00,,,0.00,WUHU21623XXSP,2013-09-23 11:16:00,
2013-09-23 04:21:00,44.8,43.9,29.83,SW,225,13.6,14.1,97,0.00,,,0.00,WUHU21623XXSP,2013-09-23 11:21:00,
2013-09-23 04:26:00,44.6,43.7,29.83,SW,225,6.5,13.6,97,0.00,,,0.00,WUHU21623XXSP,2013-09-23 11:26:00,
2013-09-23 04:31:00,44.4,43.5,29.83,SW,225,5.8,8.3,97,0.00,,,0.00,WUHU21623XXSP,2013-09-23 11:31:00,
2013-09-23 04:36:00,44.4,43.5,29.83,SW,225,8.1,8.3,97,0.00,,,0.00,WUHU21623XXSP,2013-09-23 11:36:00,
2013-09-23 04:41:00,44.2,43.3,29.82,SW,225,6.3,8.1,97,0.00,,,0.00,WUHU21623XXSP,2013-09-23 11:41:00,
2013-09-23 04:46:00,44.1,43.2,29.83,SW,225,0.0,6.3,97,0.00,,,0.00,WUHU21623XXSP,2013-09-23 11:46:00,
2013-09-23 04:51:00,43.9,43.0,29.83,SW,225,9.2,9.2,97,0.00,,,0.00,WUHU21623XXSP,2013-09-23 11:51:00,
2013-09-23 04:56:00,43.9,43.0,29.83,SW,225,7.6,9.2,97,0.00,,,0.00,WUHU21623XXSP,2013-09-23 11:56:00,
2013-09-23 05:01:00,43.9,43.0,29.83,SSW,202,3.8,7.6,97,0.00,,,0.00,WUHU21623XXSP,2013-09-23 12:01:00,
2013-09-23 05:06:00,43.7,42.8,29.83,SSW,202,3.1,4.0,97,0.00,,,0.00,WUHU21623XXSP,2013-09-23 12:06:00,
2013-09-23 05:11:00,43.7,42.8,29.83,SW,225,8.5,8.5,97,0.00,,,0.00,WUHU21623XXSP,2013-09-23 12:11:00,
2013-09-23 05:16:00,43.7,42.8,29.84,SSW,202,2.0,8.5,97,0.00,,,0.00,WUHU21623XXSP,2013-09-23 12:16:00,
2013-09-23 05:21:00,43.9,43.3,29.84,South,180,0.0,8.7,98,0.00,,,0.00,WUHU21623XXSP,2013-09-23 12:21:00,
2013-09-23 05:26:00,43.9,43.3,29.84,SW,225,6.7,8.7,98,0.00,,,0.00,WUHU21623XXSP,2013-09-23 12:26:00,
2013-09-23 05:31:00,44.1,43.5,29.85,SSW,202,7.4,7.4,98,0.00,,,0.00,WUHU21623XXSP,2013-09-23 12:31:00,
2013-09-23 05:36:00,43.9,43.3,29.85,SW,225,8.7,8.7,98,0.00,,,0.00,WUHU21623XXSP,2013-09-23 12:36:00,
2013-09-23 05:41:00,43.7,43.1,29.85,SSW,202,8.7,8.7,98,0.00,,,0.00,WUHU21623XXSP,2013-09-23 12:41:00,
2013-09-23 05:46:00,43.5,42.9,29.85,SW,225,4.5,9.8,98,0.00,,,0.00,WUHU21623XXSP,2013-09-23 12:46:00,
2013-09-23 05:51:00,43.5,42.9,29.86,SSW,202,1.6,9.8,98,0.00,,,0.00,WUHU21623XXSP,2013-09-23 12:51:00,
2013-09-23 05:56:00,43.5,42.9,29.86,SW,225,4.3,7.2,98,0.00,,,0.00,WUHU21623XXSP,2013-09-23 12:56:00,
2013-09-23 06:01:00,43.9,43.3,29.86,SSW,202,9.8,9.8,98,0.00,,,0.00,WUHU21623XXSP,2013-09-23 13:01:00,
2013-09-23 06:06:00,44.1,43.5,29.86,SW,225,5.6,9.8,98,0.00,,,0.00,WUHU21623XXSP,2013-09-23 13:06:00,
2013-09-23 06:11:00,44.1,43.5,29.86,SW,225,11.2,11.2,98,0.00,,,0.00,WUHU21623XXSP,2013-09-23 13:11:00,
2013-09-23 06:16:00,44.1,43.5,29.86,SW,225,2.9,11.2,98,0.00,,,0.00,WUHU21623XXSP,2013-09-23 13:16:00,
2013-09-23 06:21:00,44.2,43.6,29.86,SSW,202,9.2,9.6,98,0.00,,,0.00,WUHU21623XXSP,2013-09-23 13:21:00,
2013-09-23 06:26:00,44.2,43.6,29.86,SSW,202,11.9,11.9,98,0.00,,,0.00,WUHU21623XXSP,2013-09-23 13:26:00,
2013-09-23 06:31:00,44.4,43.8,29.86,SSW,202,9.6,11.9,98,0.00,,,0.00,WUHU21623XXSP,2013-09-23 13:31:00,
2013-09-23 06:36:00,44.4,43.8,29.86,SW,225,10.3,11.6,98,0.00,,,0.00,WUHU21623XXSP,2013-09-23 13:36:00,
2013-09-23 06:41:00,44.4,43.8,29.86,SW,225,8.1,10.3,98,0.00,,,0.00,WUHU21623XXSP,2013-09-23 13:41:00,
2013-09-23 06:46:00,44.4,43.8,29.86,WSW,247,8.5,9.6,98,0.00,,,0.00,WUHU21623XXSP,2013-09-23 13:46:00,
2013-09-23 06:51:00,44.4,43.8,29.86,SW,225,8.1,8.5,98,0.00,,,0.00,WUHU21623XXSP,2013-09-23 13:51:00,
2013-09-23 06:56:00,44.6,44.3,29.86,SW,225,2.5,8.1,99,0.00,,,0.00,WUHU21623XXSP,2013-09-23 13:56:00,
2013-09-23 07:01:00,44.6,44.3,29.86,SW,225,6.0,12.5,99,0.00,,,0.00,WUHU21623XXSP,2013-09-23 14:01:00,
2013-09-23 07:06:00,44.8,44.5,29.87,WSW,247,16.8,16.8,99,0.00,,,0.00,WUHU21623XXSP,2013-09-23 14:06:00,
2013-09-23 07:11:00,45.0,44.7,29.87,SW,225,14.5,16.8,99,0.00,,,0.00,WUHU21623XXSP,2013-09-23 14:11:00,
2013-09-23 07:16:00,45.3,45.0,29.87,WSW,247,11.0,16.3,99,0.00,,,0.00,WUHU21623XXSP,2013-09-23 14:16:00,
2013-09-23 07:21:00,45.3,45.0,29.87,SW,225,14.3,16.3,99,0.00,,,0.00,WUHU21623XXSP,2013-09-23 14:21:00,
2013-09-23 07:26:00,45.3,45.0,29.87,SW,225,8.1,14.3,99,0.00,,,0.00,WUHU21623XXSP,2013-09-23 14:26:00,
2013-09-23 07:31:00,45.3,44.7,29.88,SW,225,9.8,13.6,98,0.00,,,0.00,WUHU21623XXSP,2013-09-23 14:31:00,
2013-09-23 07:36:00,45.5,44.9,29.88,SSW,202,12.5,13.6,98,0.00,,,0.00,WUHU21623XXSP,2013-09-23 14:36:00,
2013-09-23 07:41:00,46.0,45.4,29.89,SSW,202,17.0,17.0,98,0.00,,,0.00,WUHU21623XXSP,2013-09-23 14:41:00,
2013-09-23 07:46:00,46.6,46.0,29.89,SW,225,12.5,17.0,98,0.00,,,0.00,WUHU21623XXSP,2013-09-23 14:46:00,
2013-09-23 07:51:00,46.9,46.3,29.89,SSW,202,8.5,13.9,98,0.00,,,0.00,WUHU21623XXSP,2013-09-23 14:51:00,
2013-09-23 07:56:00,46.9,46.0,29.89,SW,225,12.1,13.9,97,0.00,,,0.00,WUHU21623XXSP,2013-09-23 14:56:00,
2013-09-23 08:01:00,46.9,46.0,29.89,WSW,247,6.7,12.1,97,0.00,,,0.00,WUHU21623XXSP,2013-09-23 15:01:00,
2013-09-23 08:06:00,46.9,46.0,29.89,WSW,247,15.7,15.7,97,0.00,,,0.00,WUHU21623XXSP,2013-09-23 15:06:00,
2013-09-23 08:11:00,46.9,46.0,29.89,SW,225,13.6,15.7,97,0.00,,,0.00,WUHU21623XXSP,2013-09-23 15:11:00,
2013-09-23 08:16:00,47.1,46.2,29.89,SW,225,6.5,17.4,97,0.00,,,0.00,WUHU21623XXSP,2013-09-23 15:16:00,
2013-09-23 08:21:00,47.3,46.4,29.90,SW,225,10.1,17.4,97,0.00,,,0.00,WUHU21623XXSP,2013-09-23 15:21:00,
2013-09-23 08:26:00,47.5,46.6,29.90,SW,225,11.6,12.1,97,0.00,,,0.00,WUHU21623XXSP,2013-09-23 15:26:00,
2013-09-23 08:31:00,48.2,47.0,29.90,SW,225,13.2,13.2,96,0.00,,,0.00,WUHU21623XXSP,2013-09-23 15:31:00,
2013-09-23 08:34:00,48.6,47.1,29.90,WSW,247,11.9,19.5,95,0.00,,,0.00,WUHU21623XXSP,2013-09-23 15:34:00,
2013-09-23 08:36:00,48.6,47.1,29.90,WSW,247,11.9,19.5,95,0.00,,,0.00,WUHU21623XXSP,2013-09-23 15:36:00,
2013-09-23 08:41:00,48.7,47.2,29.91,WSW,247,10.5,19.5,95,0.00,,,0.00,WUHU21623XXSP,2013-09-23 15:41:00,
2013-09-23 08:46:00,48.7,47.0,29.91,WSW,247,14.1,14.1,94,0.00,,,0.00,WUHU21623XXSP,2013-09-23 15:46:00,
2013-09-23 08:51:00,49.1,47.3,29.91,SW,225,10.3,14.1,94,0.00,,,0.00,WUHU21623XXSP,2013-09-23 15:51:00,
2013-09-23 08:56:00,49.6,47.6,29.91,WSW,247,8.5,11.6,93,0.00,,,0.00,WUHU21623XXSP,2013-09-23 15:56:00,
2013-09-23 09:01:00,49.6,47.6,29.91,SW,225,9.8,10.1,93,0.00,,,0.00,WUHU21623XXSP,2013-09-23 16:01:00,
2013-09-23 09:06:00,49.6,47.3,29.91,SSW,202,7.4,9.8,92,0.00,,,0.00,WUHU21623XXSP,2013-09-23 16:06:00,
2013-09-23 09:11:00,49.8,47.5,29.92,SW,225,4.7,10.1,92,0.00,,,0.00,WUHU21623XXSP,2013-09-23 16:11:00,
2013-09-23 09:16:00,49.8,47.2,29.92,SW,225,11.2,11.2,91,0.00,,,0.00,WUHU21623XXSP,2013-09-23 16:16:00,
2013-09-23 09:21:00,50.2,47.6,29.91,SW,225,9.2,11.2,91,0.00,,,0.00,WUHU21623XXSP,2013-09-23 16:21:00,
2013-09-23 09:26:00,50.5,47.9,29.91,SW,225,11.6,11.6,91,0.00,,,0.00,WUHU21623XXSP,2013-09-23 16:26:00,
2013-09-23 09:31:00,50.5,47.6,29.91,SW,225,7.8,11.6,90,0.00,,,0.00,WUHU21623XXSP,2013-09-23 16:31:00,
2013-09-23 09:36:00,50.9,48.0,29.91,SW,225,13.4,13.4,90,0.00,,,0.00,WUHU21623XXSP,2013-09-23 16:36:00,
2013-09-23 09:41:00,51.6,48.7,29.92,SW,225,11.2,13.4,90,0.00,,,0.00,WUHU21623XXSP,2013-09-23 16:41:00,
2013-09-23 09:46:00,52.2,48.7,29.92,WSW,247,10.7,11.2,88,0.00,,,0.00,WUHU21623XXSP,2013-09-23 16:46:00,
2013-09-23 09:51:00,52.2,48.4,29.92,WSW,247,10.7,11.2,87,0.00,,,0.00,WUHU21623XXSP,2013-09-23 16:51:00,
2013-09-23 09:56:00,52.0,48.2,29.92,SSW,202,7.6,10.7,87,0.00,,,0.00,WUHU21623XXSP,2013-09-23 16:56:00,
2013-09-23 10:01:00,51.8,48.3,29.92,SSW,202,9.6,10.7,88,0.00,,,0.00,WUHU21623XXSP,2013-09-23 17:01:00,
2013-09-23 10:06:00,52.2,48.7,29.92,SW,225,2.9,10.3,88,0.00,,,0.00,WUHU21623XXSP,2013-09-23 17:06:00,
2013-09-23 10:11:00,53.2,49.4,29.93,WSW,247,8.3,11.9,87,0.00,,,0.00,WUHU21623XXSP,2013-09-23 17:11:00,
2013-09-23 10:16:00,54.5,50.9,29.93,WSW,247,11.2,11.9,88,0.00,,,0.00,WUHU21623XXSP,2013-09-23 17:16:00,
2013-09-23 10:21:00,55.8,51.0,29.92,WSW,247,10.3,11.4,84,0.00,,,0.00,WUHU21623XXSP,2013-09-23 17:21:00,
2013-09-23 10:26:00,55.9,50.1,29.93,WSW,247,8.3,13.4,81,0.00,,,0.00,WUHU21623XXSP,2013-09-23 17:26:00,
2013-09-23 10:31:00,55.8,49.4,29.93,WSW,247,13.6,13.6,79,0.00,,,0.00,WUHU21623XXSP,2013-09-23 17:31:00,
2013-09-23 10:36:00,55.6,49.5,29.93,WSW,247,13.6,15.0,80,0.00,,,0.00,WUHU21623XXSP,2013-09-23 17:36:00,
2013-09-23 10:41:00,55.8,49.7,29.93,WSW,247,14.8,15.0,80,0.00,,,0.00,WUHU21623XXSP,2013-09-23 17:41:00,
2013-09-23 10:46:00,55.9,49.8,29.93,West,270,5.8,14.8,80,0.00,,,0.00,WUHU21623XXSP,2013-09-23 17:46:00,
2013-09-23 10:51:00,56.1,50.0,29.94,WSW,247,9.8,11.2,80,0.00,,,0.00,WUHU21623XXSP,2013-09-23 17:51:00,
2013-09-23 10:56:00,56.3,49.9,29.94,WSW,247,12.3,13.2,79,0.00,,,0.00,WUHU21623XXSP,2013-09-23 17:56:00,
2013-09-23 11:01:00,55.9,49.5,29.94,SW,225,8.5,13.6,79,0.00,,,0.00,WUHU21623XXSP,2013-09-23 18:01:00,
2013-09-23 11:06:00,55.8,49.7,29.94,WSW,247,12.3,17.0,80,0.00,,,0.00,WUHU21623XXSP,2013-09-23 18:06:00,
2013-09-23 11:11:00,56.1,50.0,29.94,WSW,247,11.6,17.0,80,0.00,,,0.00,WUHU21623XXSP,2013-09-23 18:11:00,
2013-09-23 11:16:00,57.0,51.2,29.94,WSW,247,11.2,12.1,81,0.00,,,0.00,WUHU21623XXSP,2013-09-23 18:16:00,
2013-09-23 11:21:00,57.9,50.7,29.94,WSW,247,13.9,13.9,77,0.00,,,0.00,WUHU21623XXSP,2013-09-23 18:21:00,
2013-09-23 11:26:00,58.3,50.8,29.94,SW,225,13.0,13.9,76,0.00,,,0.00,WUHU21623XXSP,2013-09-23 18:26:00,
2013-09-23 11:31:00,58.8,50.9,29.94,WSW,247,10.7,13.0,75,0.00,,,0.00,WUHU21623XXSP,2013-09-23 18:31:00,
2013-09-23 11:36:00,58.8,50.6,29.94,SW,225,14.3,14.3,74,0.00,,,0.00,WUHU21623XXSP,2013-09-23 18:36:00,
2013-09-23 11:41:00,58.8,50.6,29.94,WSW,247,11.4,14.3,74,0.00,,,0.00,WUHU21623XXSP,2013-09-23 18:41:00,
2013-09-23 11:46:00,58.8,50.6,29.94,WSW,247,10.7,13.2,74,0.00,,,0.00,WUHU21623XXSP,2013-09-23 18:46:00,
2013-09-23 11:51:00,58.8,50.2,29.94,SW,225,7.2,13.0,73,0.00,,,0.00,WUHU21623XXSP,2013-09-23 18:51:00,
2013-09-23 11:56:00,58.3,50.1,29.94,SW,225,8.5,14.1,74,0.00,,,0.00,WUHU21623XXSP,2013-09-23 18:56:00,
2013-09-23 12:01:00,58.1,49.9,29.94,West,270,5.6,14.1,74,0.00,,,0.00,WUHU21623XXSP,2013-09-23 19:01:00,
2013-09-23 12:06:00,57.9,49.3,29.94,WSW,247,17.4,17.4,73,0.00,,,0.00,WUHU21623XXSP,2013-09-23 19:06:00,
2013-09-23 12:11:00,57.6,49.0,29.94,WSW,247,12.3,17.4,73,0.00,,,0.00,WUHU21623XXSP,2013-09-23 19:11:00,
2013-09-23 12:16:00,57.4,48.9,29.94,WSW,247,3.4,12.3,73,0.00,,,0.00,WUHU21623XXSP,2013-09-23 19:16:00,
2013-09-23 12:21:00,57.4,48.9,29.94,SW,225,9.4,9.4,73,0.00,,,0.00,WUHU21623XXSP,2013-09-23 19:21:00,
2013-09-23 12:26:00,57.0,48.5,29.94,West,270,4.9,13.2,73,0.00,,,0.00,WUHU21623XXSP,2013-09-23 19:26:00,
2013-09-23 12:31:00,57.0,48.5,29.94,WSW,247,10.5,13.2,73,0.00,,,0.00,WUHU21623XXSP,2013-09-23 19:31:00,
2013-09-23 12:36:00,57.0,48.8,29.94,WSW,247,7.8,11.0,74,0.00,,,0.00,WUHU21623XXSP,2013-09-23 19:36:00,
2013-09-23 12:41:00,57.2,49.0,29.94,SW,225,10.1,10.1,74,0.00,,,0.00,WUHU21623XXSP,2013-09-23 19:41:00,
2013-09-23 12:46:00,57.2,49.0,29.94,WSW,247,4.3,10.1,74,0.00,,,0.00,WUHU21623XXSP,2013-09-23 19:46:00,
2013-09-23 12:51:00,57.4,49.2,29.94,West,270,10.1,10.1,74,0.00,,,0.00,WUHU21623XXSP,2013-09-23 19:51:00,
2013-09-23 12:56:00,57.6,49.0,29.94,West,270,8.3,11.6,73,0.00,,,0.00,WUHU21623XXSP,2013-09-23 19:56:00,
2013-09-23 13:01:00,57.4,49.2,29.94,SW,225,11.0,11.6,74,0.00,,,0.00,WUHU21623XXSP,2013-09-23 20:01:00,
2013-09-23 13:06:00,57.4,49.2,29.94,WSW,247,10.3,11.0,74,0.00,,,0.00,WUHU21623XXSP,2013-09-23 20:06:00,
2013-09-23 13:11:00,57.6,49.4,29.94,WSW,247,6.0,10.3,74,0.00,,,0.00,WUHU21623XXSP,2013-09-23 20:11:00,
2013-09-23 13:16:00,57.9,49.3,29.94,West,270,8.3,9.2,73,0.00,,,0.00,WUHU21623XXSP,2013-09-23 20:16:00,
2013-09-23 13:21:00,57.9,49.3,29.94,West,270,9.6,9.6,73,0.00,,,0.00,WUHU21623XXSP,2013-09-23 20:21:00,
2013-09-23 13:26:00,57.9,49.0,29.94,WSW,247,9.2,10.5,72,0.00,,,0.00,WUHU21623XXSP,2013-09-23 20:26:00,
2013-09-23 13:31:00,57.7,48.4,29.94,WSW,247,9.8,13.2,71,0.00,,,0.00,WUHU21623XXSP,2013-09-23 20:31:00,
2013-09-23 13:36:00,57.7,48.8,29.94,WSW,247,2.5,13.2,72,0.00,,,0.00,WUHU21623XXSP,2013-09-23 20:36:00,
2013-09-23 13:41:00,57.9,48.6,29.94,WSW,247,14.1,14.1,71,0.00,,,0.00,WUHU21623XXSP,2013-09-23 20:41:00,
2013-09-23 13:46:00,58.1,48.8,29.94,WSW,247,9.2,14.1,71,0.00,,,0.00,WUHU21623XXSP,2013-09-23 20:46:00,
2013-09-23 13:51:00,58.5,49.2,29.94,WSW,247,12.1,12.1,71,0.00,,,0.00,WUHU21623XXSP,2013-09-23 20:51:00,
2013-09-23 13:56:00,59.0,49.3,29.94,WSW,247,11.4,13.2,70,0.00,,,0.00,WUHU21623XXSP,2013-09-23 20:56:00,
2013-09-23 14:01:00,60.1,50.3,29.94,West,270,13.6,13.6,70,0.00,,,0.00,WUHU21623XXSP,2013-09-23 21:01:00,
2013-09-23 14:04:00,61.0,50.0,29.94,West,270,12.8,13.6,67,0.00,,,0.00,WUHU21623XXSP,2013-09-23 21:04:00,
2013-09-23 14:09:00,61.2,50.2,29.94,SW,225,13.2,13.6,67,0.00,,,0.00,WUHU21623XXSP,2013-09-23 21:09:00,
2013-09-23 14:15:00,61.0,49.6,29.94,WSW,247,3.1,13.2,66,0.00,,,0.00,WUHU21623XXSP,2013-09-23 21:15:00,
2013-09-23 14:22:00,60.6,49.2,29.94,WSW,247,6.9,13.2,66,0.00,,,0.00,WUHU21623XXSP,2013-09-23 21:22:00,
2013-09-23 14:36:00,60.4,49.5,29.94,SW,225,13.2,13.2,67,0.00,,,0.00,WUHU21623XXSP,2013-09-23 21:36:00,
2013-09-23 14:41:00,59.4,48.9,29.93,WSW,247,13.9,15.0,68,0.00,,,0.00,WUHU21623XXSP,2013-09-23 21:41:00,
2013-09-23 14:46:00,58.8,48.3,29.93,West,270,7.8,15.0,68,0.00,,,0.00,WUHU21623XXSP,2013-09-23 21:46:00,
2013-09-23 14:51:00,58.8,48.7,29.94,WSW,247,10.3,13.9,69,0.00,,,0.00,WUHU21623XXSP,2013-09-23 21:51:00,
2013-09-23 14:56:00,58.8,48.7,29.93,SW,225,7.2,10.3,69,0.00,,,0.00,WUHU21623XXSP,2013-09-23 21:56:00,
2013-09-23 15:01:00,59.2,49.1,29.93,WSW,247,11.9,11.9,69,0.00,,,0.00,WUHU21623XXSP,2013-09-23 22:01:00,
2013-09-23 15:06:00,59.4,49.3,29.93,WSW,247,14.1,14.1,69,0.00,,,0.00,WUHU21623XXSP,2013-09-23 22:06:00,
2013-09-23 15:11:00,59.5,49.4,29.93,WSW,247,11.6,14.1,69,0.00,,,0.00,WUHU21623XXSP,2013-09-23 22:11:00,
2013-09-23 15:16:00,59.5,49.4,29.93,West,270,5.8,11.6,69,0.00,,,0.00,WUHU21623XXSP,2013-09-23 22:16:00,
2013-09-23 15:21:00,59.5,49.4,29.93,West,270,5.8,8.5,69,0.00,,,0.00,WUHU21623XXSP,2013-09-23 22:21:00,
2013-09-23 15:26:00,59.5,49.0,29.93,WSW,247,13.9,13.9,68,0.00,,,0.00,WUHU21623XXSP,2013-09-23 22:26:00,
2013-09-23 15:31:00,59.7,49.2,29.93,WSW,247,1.8,13.9,68,0.00,,,0.00,WUHU21623XXSP,2013-09-23 22:31:00,
2013-09-23 15:36:00,60.1,48.8,29.93,WSW,247,1.8,1.8,66,0.00,,,0.00,WUHU21623XXSP,2013-09-23 22:36:00,
2013-09-23 15:41:00,60.4,48.6,29.93,WSW,247,4.9,9.4,65,0.00,,,0.00,WUHU21623XXSP,2013-09-23 22:41:00,
2013-09-23 15:46:00,60.4,48.6,29.93,West,270,10.7,11.0,65,0.00,,,0.00,WUHU21623XXSP,2013-09-23 22:46:00,
2013-09-23 15:51:00,60.4,48.6,29.93,WSW,247,10.1,11.9,65,0.00,,,0.00,WUHU21623XXSP,2013-09-23 22:51:00,
2013-09-23 15:56:00,60.1,48.4,29.93,SW,225,7.4,11.9,65,0.00,,,0.00,WUHU21623XXSP,2013-09-23 22:56:00,
2013-09-23 16:01:00,60.1,48.4,29.93,WSW,247,0.0,13.4,65,0.00,,,0.00,WUHU21623XXSP,2013-09-23 23:01:00,
2013-09-23 16:06:00,59.9,48.2,29.93,West,270,12.3,13.4,65,0.00,,,0.00,WUHU21623XXSP,2013-09-23 23:06:00,
2013-09-23 16:11:00,59.9,48.6,29.93,West,270,12.3,12.3,66,0.00,,,0.00,WUHU21623XXSP,2013-09-23 23:11:00,
2013-09-23 16:16:00,59.7,48.4,29.93,WSW,247,3.8,12.3,66,0.00,,,0.00,WUHU21623XXSP,2013-09-23 23:16:00,
2013-09-23 16:21:00,59.7,48.4,29.93,West,270,7.8,8.3,66,0.00,,,0.00,WUHU21623XXSP,2013-09-23 23:21:00,
2013-09-23 16:26:00,59.5,48.6,29.93,WSW,247,6.0,8.1,67,0.00,,,0.00,WUHU21623XXSP,2013-09-23 23:26:00,
2013-09-23 16:31:00,59.7,48.8,29.93,WSW,247,12.5,12.5,67,0.00,,,0.00,WUHU21623XXSP,2013-09-23 23:31:00,
2013-09-23 16:36:00,59.5,48.6,29.93,WSW,247,12.5,12.5,67,0.00,,,0.00,WUHU21623XXSP,2013-09-23 23:36:00,
2013-09-23 16:41:00,59.4,48.5,29.93,WSW,247,4.3,12.5,67,0.00,,,0.00,WUHU21623XXSP,2013-09-23 23:41:00,
2013-09-23 16:46:00,59.2,48.3,29.93,WSW,247,12.3,12.3,67,0.00,,,0.00,WUHU21623XXSP,2013-09-23 23:46:00,
2013-09-23 16:51:00,59.2,48.3,29.93,WSW,247,12.3,12.3,67,0.00,,,0.00,WUHU21623XXSP,2013-09-23 23:51:00,
2013-09-23 16:56:00,58.8,47.9,29.93,West,270,11.4,12.3,67,0.00,,,0.00,WUHU21623XXSP,2013-09-23 23:56:00,
2013-09-23 17:01:00,58.8,48.3,29.93,West,270,13.2,13.2,68,0.00,,,0.00,WUHU21623XXSP,2013-09-24 00:01:00,
2013-09-23 17:06:00,58.8,48.3,29.93,West,270,13.2,13.2,68,0.00,,,0.00,WUHU21623XXSP,2013-09-24 00:06:00,
2013-09-23 17:11:00,58.8,48.3,29.92,West,270,4.5,13.2,68,0.00,,,0.00,WUHU21623XXSP,2013-09-24 00:11:00,
2013-09-23 17:16:00,58.6,48.1,29.93,West,270,6.7,9.2,68,0.00,,,0.00,WUHU21623XXSP,2013-09-24 00:16:00,
2013-09-23 17:21:00,58.5,48.0,29.93,West,270,6.7,6.7,68,0.00,,,0.00,WUHU21623XXSP,2013-09-24 00:21:00,
2013-09-23 17:26:00,58.1,47.7,29.93,West,270,0.0,6.7,68,0.00,,,0.00,WUHU21623XXSP,2013-09-24 00:26:00,
2013-09-23 17:31:00,58.1,47.7,29.93,West,270,11.9,11.9,68,0.00,,,0.00,WUHU21623XXSP,2013-09-24 00:31:00,
2013-09-23 17:36:00,57.9,47.5,29.93,SW,225,6.0,11.9,68,0.00,,,0.00,WUHU21623XXSP,2013-09-24 00:36:00,
2013-09-23 17:41:00,57.7,47.3,29.93,WSW,247,6.0,11.9,68,0.00,,,0.00,WUHU21623XXSP,2013-09-24 00:41:00,
2013-09-23 17:46:00,57.4,47.0,29.93,West,270,8.3,10.5,68,0.00,,,0.00,WUHU21623XXSP,2013-09-24 00:46:00,
2013-09-23 17:51:00,57.2,47.2,29.93,West,270,8.3,8.3,69,0.00,,,0.00,WUHU21623XXSP,2013-09-24 00:51:00,
2013-09-23 17:56:00,56.8,46.8,29.93,WSW,247,5.4,8.3,69,0.00,,,0.00,WUHU21623XXSP,2013-09-24 00:56:00,
2013-09-23 18:01:00,56.5,46.9,29.93,West,270,7.2,7.2,70,0.00,,,0.00,WUHU21623XXSP,2013-09-24 01:01:00,
2013-09-23 18:06:00,56.1,46.5,29.92,West,270,0.0,7.2,70,0.00,,,0.00,WUHU21623XXSP,2013-09-24 01:06:00,
2013-09-23 18:11:00,55.9,46.7,29.92,West,270,0.0,0.0,71,0.00,,,0.00,WUHU21623XXSP,2013-09-24 01:11:00,
2013-09-23 18:16:00,55.9,47.0,29.92,West,270,0.0,0.0,72,0.00,,,0.00,WUHU21623XXSP,2013-09-24 01:16:00,
2013-09-23 18:21:00,55.6,46.8,29.92,West,270,0.0,0.0,72,0.00,,,0.00,WUHU21623XXSP,2013-09-24 01:21:00,
2013-09-23 18:26:00,55.6,46.8,29.92,West,270,0.0,0.0,72,0.00,,,0.00,WUHU21623XXSP,2013-09-24 01:26:00,
2013-09-23 18:31:00,55.4,46.6,29.93,WSW,247,4.0,4.0,72,0.00,,,0.00,WUHU21623XXSP,2013-09-24 01:31:00,
2013-09-23 18:36:00,55.2,46.7,29.92,WSW,247,2.0,4.0,73,0.00,,,0.00,WUHU21623XXSP,2013-09-24 01:36:00,
2013-09-23 18:41:00,55.2,46.7,29.93,WSW,247,2.0,2.0,73,0.00,,,0.00,WUHU21623XXSP,2013-09-24 01:41:00,
2013-09-23 18:47:00,55.0,46.9,29.92,WSW,247,0.0,7.6,74,0.00,,,0.00,WUHU21623XXSP,2013-09-24 01:47:00,
2013-09-23 18:52:00,54.7,46.6,29.92,West,270,0.0,7.6,74,0.00,,,0.00,WUHU21623XXSP,2013-09-24 01:52:00,
2013-09-23 18:57:00,54.5,46.4,29.92,WSW,247,0.0,6.5,74,0.00,,,0.00,WUHU21623XXSP,2013-09-24 01:57:00,
2013-09-23 19:02:00,54.3,46.6,29.92,WSW,247,8.3,8.3,75,0.00,,,0.00,WUHU21623XXSP,2013-09-24 02:02:00,
2013-09-23 19:07:00,54.0,46.3,29.92,WSW,247,8.3,8.3,75,0.00,,,0.00,WUHU21623XXSP,2013-09-24 02:07:00,
2013-09-23 19:12:00,54.0,46.3,29.92,SW,225,0.0,8.3,75,0.00,,,0.00,WUHU21623XXSP,2013-09-24 02:12:00,
2013-09-23 19:17:00,53.8,46.1,29.92,SW,225,0.0,8.3,75,0.00,,,0.00,WUHU21623XXSP,2013-09-24 02:17:00,
2013-09-23 19:22:00,53.8,46.4,29.93,SW,225,0.0,5.8,76,0.00,,,0.00,WUHU21623XXSP,2013-09-24 02:22:00,
2013-09-23 19:27:00,53.4,46.0,29.93,SW,225,0.0,5.8,76,0.00,,,0.00,WUHU21623XXSP,2013-09-24 02:27:00,
2013-09-23 19:32:00,53.4,46.0,29.93,SW,225,0.0,2.5,76,0.00,,,0.00,WUHU21623XXSP,2013-09-24 02:32:00,
2013-09-23 19:37:00,53.2,46.2,29.93,SW,225,0.0,0.0,77,0.00,,,0.00,WUHU21623XXSP,2013-09-24 02:37:00,
2013-09-23 19:42:00,52.9,45.9,29.93,SW,225,0.0,0.0,77,0.00,,,0.00,WUHU21623XXSP,2013-09-24 02:42:00,
2013-09-23 19:47:00,52.5,45.5,29.93,SW,225,0.0,0.0,77,0.00,,,0.00,WUHU21623XXSP,2013-09-24 02:47:00,
2013-09-23 19:52:00,52.2,45.5,29.94,SW,225,0.0,0.0,78,0.00,,,0.00,WUHU21623XXSP,2013-09-24 02:52:00,
2013-09-23 19:57:00,51.8,45.1,29.94,SW,225,0.0,0.0,78,0.00,,,0.00,WUHU21623XXSP,2013-09-24 02:57:00,
2013-09-23 20:02:00,51.6,45.0,29.94,SW,225,0.0,0.0,78,0.00,,,0.00,WUHU21623XXSP,2013-09-24 03:02:00,
2013-09-23 20:07:00,51.1,44.5,29.94,SW,225,0.0,0.0,78,0.00,,,0.00,WUHU21623XXSP,2013-09-24 03:07:00,
2013-09-23 20:12:00,50.7,44.1,29.94,SW,225,0.0,0.0,78,0.00,,,0.00,WUHU21623XXSP,2013-09-24 03:12:00,
2013-09-23 20:17:00,50.4,44.1,29.94,SW,225,0.0,0.0,79,0.00,,,0.00,WUHU21623XXSP,2013-09-24 03:17:00,
2013-09-23 20:22:00,49.8,43.5,29.94,SW,225,0.0,0.0,79,0.00,,,0.00,WUHU21623XXSP,2013-09-24 03:22:00,
2013-09-23 20:27:00,49.6,43.7,29.94,SW,225,0.0,0.0,80,0.00,,,0.00,WUHU21623XXSP,2013-09-24 03:27:00,
2013-09-23 20:32:00,49.3,43.4,29.94,SW,225,0.0,0.0,80,0.00,,,0.00,WUHU21623XXSP,2013-09-24 03:32:00,
2013-09-23 20:37:00,48.9,43.3,29.94,SW,225,0.0,0.0,81,0.00,,,0.00,WUHU21623XXSP,2013-09-24 03:37:00,
2013-09-23 20:42:00,48.9,43.3,29.94,SW,225,0.0,0.0,81,0.00,,,0.00,WUHU21623XXSP,2013-09-24 03:42:00,
2013-09-23 20:47:00,48.9,43.3,29.94,SW,225,0.0,0.0,81,0.00,,,0.00,WUHU21623XXSP,2013-09-24 03:47:00,
2013-09-23 20:52:00,48.7,43.4,29.94,SW,225,0.0,0.0,82,0.00,,,0.00,WUHU21623XXSP,2013-09-24 03:52:00,
2013-09-23 20:57:00,48.7,43.7,29.94,SW,225,0.0,0.0,83,0.00,,,0.00,WUHU21623XXSP,2013-09-24 03:57:00,
2013-09-23 21:01:00,48.6,43.6,29.94,SW,225,0.0,0.0,83,0.00,,,0.00,WUHU21623XXSP,2013-09-24 04:01:00,
2013-09-23 21:06:00,48.2,43.5,29.94,SW,225,0.0,0.0,84,0.00,,,0.00,WUHU21623XXSP,2013-09-24 04:06:00,
2013-09-23 21:11:00,47.8,43.1,29.94,SW,225,0.0,0.0,84,0.00,,,0.00,WUHU21623XXSP,2013-09-24 04:11:00,
2013-09-23 21:16:00,47.7,43.0,29.94,SW,225,0.0,0.0,84,0.00,,,0.00,WUHU21623XXSP,2013-09-24 04:16:00,
2013-09-23 21:21:00,47.7,43.0,29.94,SW,225,0.0,0.0,84,0.00,,,0.00,WUHU21623XXSP,2013-09-24 04:21:00,
2013-09-23 21:26:00,47.7,43.0,29.94,SW,225,0.0,0.0,84,0.00,,,0.00,WUHU21623XXSP,2013-09-24 04:26:00,
2013-09-23 21:31:00,47.7,43.0,29.94,WSW,247,0.0,0.0,84,0.00,,,0.00,WUHU21623XXSP,2013-09-24 04:31:00,
2013-09-23 21:36:00,47.8,43.1,29.94,WSW,247,0.0,0.0,84,0.00,,,0.00,WUHU21623XXSP,2013-09-24 04:36:00,
2013-09-23 21:41:00,47.8,43.1,29.94,SW,225,0.0,0.0,84,0.00,,,0.00,WUHU21623XXSP,2013-09-24 04:41:00,
2013-09-23 21:46:00,47.8,43.1,29.94,SW,225,0.0,0.0,84,0.00,,,0.00,WUHU21623XXSP,2013-09-24 04:46:00,
2013-09-23 21:51:00,47.7,43.0,29.94,SW,225,0.0,0.0,84,0.00,,,0.00,WUHU21623XXSP,2013-09-24 04:51:00,
2013-09-23 21:56:00,47.3,42.9,29.94,SW,225,0.0,0.0,85,0.00,,,0.00,WUHU21623XXSP,2013-09-24 04:56:00,
2013-09-23 22:01:00,47.1,42.8,29.94,SW,225,0.0,0.0,85,0.00,,,0.00,WUHU21623XXSP,2013-09-24 05:01:00,
2013-09-23 22:06:00,47.1,43.1,29.94,SSW,202,0.0,0.0,86,0.00,,,0.00,WUHU21623XXSP,2013-09-24 05:06:00,
2013-09-23 22:11:00,47.3,43.2,29.94,SSW,202,7.6,7.6,86,0.00,,,0.00,WUHU21623XXSP,2013-09-24 05:11:00,
2013-09-23 22:16:00,47.7,43.6,29.94,SSW,202,0.0,7.6,86,0.00,,,0.00,WUHU21623XXSP,2013-09-24 05:16:00,
2013-09-23 22:21:00,48.0,43.9,29.94,SW,225,0.0,4.3,86,0.00,,,0.00,WUHU21623XXSP,2013-09-24 05:21:00,
2013-09-23 22:26:00,48.0,43.9,29.94,SW,225,0.0,0.0,86,0.00,,,0.00,WUHU21623XXSP,2013-09-24 05:26:00,
2013-09-23 22:31:00,48.0,43.6,29.94,SW,225,0.0,0.0,85,0.00,,,0.00,WUHU21623XXSP,2013-09-24 05:31:00,
2013-09-23 22:36:00,48.0,43.6,29.93,SSW,202,0.0,0.0,85,0.00,,,0.00,WUHU21623XXSP,2013-09-24 05:36:00,
2013-09-23 22:41:00,48.0,43.6,29.93,SSW,202,0.0,0.0,85,0.00,,,0.00,WUHU21623XXSP,2013-09-24 05:41:00,
2013-09-23 22:47:00,47.7,43.3,29.93,SSW,202,0.0,0.0,85,0.00,,,0.00,WUHU21623XXSP,2013-09-24 05:47:00,
2013-09-23 22:52:00,47.3,42.9,29.93,SSW,202,0.0,0.0,85,0.00,,,0.00,WUHU21623XXSP,2013-09-24 05:52:00,
2013-09-23 22:57:00,46.9,42.6,29.93,SSW,202,0.0,0.0,85,0.00,,,0.00,WUHU21623XXSP,2013-09-24 05:57:00,
2013-09-23 23:02:00,46.8,43.1,29.93,SSW,202,1.3,1.3,87,0.00,,,0.00,WUHU21623XXSP,2013-09-24 06:02:00,
2013-09-23 23:06:00,46.8,43.1,29.93,SW,225,0.0,1.3,87,0.00,,,0.00,WUHU21623XXSP,2013-09-24 06:06:00,
2013-09-23 23:11:00,46.6,42.9,29.93,SW,225,0.0,3.1,87,0.00,,,0.00,WUHU21623XXSP,2013-09-24 06:11:00,
2013-09-23 23:16:00,46.6,42.9,29.93,SW,225,0.0,5.4,87,0.00,,,0.00,WUHU21623XXSP,2013-09-24 06:16:00,
2013-09-23 23:21:00,46.8,43.1,29.93,SSW,202,7.4,7.8,87,0.00,,,0.00,WUHU21623XXSP,2013-09-24 06:21:00,
2013-09-23 23:26:00,46.9,43.4,29.93,SW,225,4.0,7.8,88,0.00,,,0.00,WUHU21623XXSP,2013-09-24 06:26:00,
2013-09-23 23:31:00,47.1,43.6,29.93,SW,225,2.0,7.8,88,0.00,,,0.00,WUHU21623XXSP,2013-09-24 06:31:00,
2013-09-23 23:36:00,47.7,44.2,29.93,SW,225,7.6,8.3,88,0.00,,,0.00,WUHU21623XXSP,2013-09-24 06:36:00,
2013-09-23 23:42:00,47.8,44.3,29.93,SW,225,7.2,8.3,88,0.00,,,0.00,WUHU21623XXSP,2013-09-24 06:42:00,
2013-09-23 23:47:00,48.0,44.2,29.93,SW,225,7.2,9.2,87,0.00,,,0.00,WUHU21623XXSP,2013-09-24 06:47:00,
2013-09-23 23:51:00,48.0,44.2,29.93,SW,225,7.8,9.2,87,0.00,,,0.00,WUHU21623XXSP,2013-09-24 06:51:00,
2013-09-23 23:56:00,48.0,44.2,29.93,WSW,247,8.5,8.5,87,0.00,,,0.00,WUHU21623XXSP,2013-09-24 06:56:00,